Regional Weather Roundup
Issued by NWS

Home | Current Version | Previous Version | Text Only | Print | Product List | Glossary Off
Versions: 1 2 3 4 5 6 7 8 9 10 11 12 13 14 15 16 17 18 19 20 21 22 23 24 25 26 27 28 29 30 31 32 33 34 35 36 37 38 39 40 41 42 43 44 45 46 47 48 49 50

000
ASUS45 KBOI 281110
RWRID

IDAHO REGIONAL WEATHER ROUNDUP
NATIONAL WEATHER SERVICE BOISE ID
500 AM MDT SUN AUG 28 2016

NOTE: "FAIR" INDICATES FEW OR NO CLOUDS BELOW 12000 FEET
WITH NO SIGNIFICANT WEATHER AND/OR OBSTRUCTIONS TO VISIBILITY

IDZ012-014-281200-
SOUTHWEST IDAHO


CITY           SKY/WX    TMP DP  RH WIND       PRES   REMARKS
BOISE          CLEAR     62  32  32 E5        29.99R
CALDWELL       CLEAR     63  45  51 CALM      29.99R
MOUNTAIN HOME  CLEAR     57  30  36 NW9       29.98R
$$

IDZ016-017-281200-
SOUTHCENTRAL IDAHO


CITY           SKY/WX    TMP DP  RH WIND       PRES   REMARKS
BURLEY         CLEAR     51  43  74 N6        30.04R
JEROME         CLEAR     53  40  61 CALM      30.04R
TWIN FALLS     CLEAR     62  31  31 S12       30.03R
$$

IDZ019>023-281200-
SOUTHEAST IDAHO


CITY           SKY/WX    TMP DP  RH WIND       PRES   REMARKS
IDAHO FALLS    CLEAR     56  35  45 E5        30.09R
POCATELLO      CLEAR     48  32  53 N7        30.07R
REXBURG        CLEAR     48  35  60 NE5       30.09R
$$

IDZ006-010-011-018-031-032-281200-
CENTRAL IDAHO MOUNTAINS


CITY           SKY/WX    TMP DP  RH WIND       PRES   REMARKS
MCCALL         PTCLDY    48  36  63 CALM      30.09R
HAILEY         CLEAR     50  32  50 NW8       30.14S
STANLEY          N/A     36  25  64 CALM      30.21R
SALMON         CLEAR     50  36  57 CALM      30.03R
CHALLIS        CLOUDY    52  27  38 CALM      30.09R
$$

IDZ002-004-006-007-026-281200-
NORTHERN IDAHO


CITY           SKY/WX    TMP DP  RH WIND       PRES   REMARKS
LEWISTON       PTCLDY    69  47  45 W8        29.94R
LOWELL           N/A     59  51  75 NW5       29.97R
COEUR D`ALENE  PTCLDY    61  39  44 CALM      29.93R
MULLAN PASS    PTCLDY    50  35  56 W9G18     30.06R
$$



USA.gov is the U.S. government's official web portal to all federal, state and local government web resources and services.